Hourly Data Report for October 23, 2014

All times are specified in Local Standard Time (LST). Add 1 hour to adjust for Daylight Saving Time where and when it is observed.

SAINT JOHN A
NEW BRUNSWICK

45°18'58.000" N
65°53'24.000" W
108.80 m
8104901
71609
YSJ

Download Data

Hourly Data (October 2014)
Hourly Data Report for October 23, 2014
Temp Definition
°C
Dew Point Temp Definition
°C
Rel Hum Definition
%
Wind Dir Definition
10's deg

Wind Spd Definition
km/h
Visibility Definition
km
Stn Press Definition
kPa
Hmdx Definition


Wind Chill Definition


Weather Definition


TIME
00:00 Legend Double Dagger 9.0 8.6 97 4 17 24.1 100.86     Rain
01:00 Legend Double Dagger 9.4 9.0 97 4 28 16.1 100.74     Rain
02:00 Legend Double Dagger 9.5 9.1 97 4 30 8.1 100.70     Rain,Fog
03:00 Legend Double Dagger 9.7 8.9 95 5 27 4.8 100.63     Rain,Fog
04:00 Legend Double Dagger 9.9 9.3 96 4 27 4.8 100.57     Rain,Fog
05:00 Legend Double Dagger 10.2 9.1 93 6 27 4.8 100.53     Rain,Fog
06:00 Legend Double Dagger 10.3 9.2 93 5 25 4.8 100.50     Rain,Fog
07:00 Legend Double Dagger 10.6 9.2 91 6 29 16.1 100.48     LegendNANA
08:00 Legend Double Dagger 10.7 8.6 87 6 39 16.1 100.45     Cloudy
09:00 Legend Double Dagger 10.6 8.7 88 5 30 16.1 100.41     Rain
10:00 Legend Double Dagger 10.3 9.1 92 5 20 16.1 100.41     Rain
11:00 Legend Double Dagger 9.9 9.0 94 4 21 4.8 100.36     Rain,Fog
12:00 Legend Double Dagger 9.8 8.9 94 6 23 9.7 100.27     Rain,Fog
13:00 Legend Double Dagger 10.0 9.1 94 5 20 16.1 100.16     LegendNANA
14:00 Legend Double Dagger 10.7 9.3 91 5 23 16.1 100.10     Cloudy
15:00 Legend Double Dagger 10.6 9.2 91 4 25 24.1 100.00     LegendNANA
16:00 Legend Double Dagger 10.5 8.9 90 5 24 16.1 99.99     Rain
17:00 Legend Double Dagger 9.9 9.1 95 4 25 8.1 99.88     Rain,Fog
18:00 Legend Double Dagger 9.6 9.2 97 3 22 8.1 99.80     Rain,Fog
19:00 Legend Double Dagger 9.9 9.5 97 4 22 8.1 99.76     Rain,Fog
20:00 Legend Double Dagger 10.1 9.8 98 3 19 8.1 99.63     Rain,Fog
21:00 Legend Double Dagger 10.7 9.9 95 4 21 9.7 99.61     Rain,Fog
22:00 Legend Double Dagger 11.2 10.4 95 5 23 9.7 99.53     Rain,Fog,Blowing Sand
23:00 Legend Double Dagger 11.1 10.5 96 5 21 9.7 99.47     Rain,Fog

Notes on Data Quality.

Legend

  • E = Estimated
  • M = Missing
  • NA = Not Available
  • ‡ = Partner data that is not subject to review by the National Climate Archives
Date modified: